Regional Weather Roundup
Issued by NWS

Home | Current Version | Previous Version | Text Only | Print | Product List | Glossary Off
Versions: 1 2 3 4 5 6 7 8 9 10 11 12 13 14 15 16 17 18 19 20 21 22 23 24 25 26 27 28 29 30 31 32 33 34 35 36 37 38 39 40 41 42 43 44 45 46 47 48 49 50

901
ASUS45 KSLC 251410
RWRUT

UTAH REGIONAL WEATHER ROUNDUP
NATIONAL WEATHER SERVICE SALT LAKE CITY UT
800 AM MDT TUE JUL 25 2017

UTZ001>011-023>025-251500-

NORTHERN UTAH

CITY           SKY/WX    TMP DP  RH WIND       PRES   REMARKS
BRIGHAM CITY   CLOUDY    73  57  58 S6        30.12R
DUGWAY         CLOUDY    70  58  65 S1        30.11
HILL AFB       PTSUNNY   65  57  76 SE15      30.14R
LOGAN          LGT RAIN  69  63  81 S3        30.12R
OGDEN          CLOUDY    69  59  70 SE3       30.11R
SALT LAKE CITY LGT RAIN  69  62  78 SE6       30.10S
TOOELE VALLEY  CLOUDY    68  61  77 S12       30.11R
WENDOVER       CLOUDY    72  59  63 CALM      30.10R
HEBER CITY     DRIZZLE   63  59  88 CALM      30.19S
WEST JORDAN    CLOUDY    66  66 100 E6        30.14S

$$

UTZ011>015-024>027-251500-

CENTRAL/NORTHEAST UTAH

CITY           SKY/WX    TMP DP  RH WIND       PRES   REMARKS
PROVO AIRPORT  CLOUDY    68  63  84 E5        30.14R
MOAB/CANYONLAN LGT RAIN  66  64  93 CALM      30.13S
DELTA          CLOUDY    70  55  60 CALM      30.13R
PRICE          RAIN      61  60  97 CALM      30.22R FOG
ROOSEVELT      LGT RAIN  64  61  88 CALM      30.21R
VERNAL         CLOUDY    65  62  90 SE3       30.19S

$$

UTZ013>016-019>022-027-251500-

SOUTHERN UTAH

CITY           SKY/WX    TMP DP  RH WIND       PRES   REMARKS
BRYCE CANYON   LGT RAIN  57  56  96 NE8       30.31R
CEDAR CITY     RAIN      62  62 100 CALM      30.19R FOG
MILFORD        CLOUDY    67  60  78 S8        30.14R
ST GEORGE      LGT RAIN  70  68  94 CALM      30.07R
HANKSVILLE     CLOUDY    64  63  94 CALM      30.16R
BLANDING       CLOUDY    68  56  65 SE8       30.29S

$$

REGIONAL REPORTS     COLORADO/ARIZONA

CITY           SKY/WX    TMP DP  RH WIND       PRES   REMARKS
CRAIG, CO      CLOUDY    63  57  81 E6        30.25R
GRAND JUNCTION CLOUDY    67  64  90 E5        30.18R
RIFLE, CO      LGT RAIN  64  61  90 NE3       30.23S
MONTROSE, CO   CLOUDY    64  61  90 SW6       30.26S
CORTEZ, CO     CLOUDY    66  61  84 CALM      30.23S
COLORADO CITY  RAIN      66  64  94 CALM      30.18R
PAGE, AZ       PTSUNNY   71  64  78 W6        30.11R
GRAND CANYON   CLOUDY    61  61 100 S7        30.28R
KINGMAN, AZ    CLOUDY    73  66  78 SE7       30.07R
FLAGSTAFF, AZ  CLOUDY    59  59 100 SW5       30.32R

$$

REGIONAL REPORTS    NEVADA/IDAHO/WYOMING

CITY           SKY/WX    TMP DP  RH WIND       PRES   REMARKS
LAS VEGAS, NV  CLOUDY    76  68  76 NE10      30.01R
ELY, NY        PTSUNNY   59  54  83 SE5       30.22R
ELKO, NV       PTSUNNY   65  50  58 NW3       30.13S
POCATELLO, ID  CLOUDY    76  50  40 S10       30.08R
BURLEY, ID     CLOUDY    68  56  65 S14       30.05R
FORT BRIDGER,  PTSUNNY   66  50  55 S6        30.29S
EVANSTON, WY   LGT RAIN  57  56  96 SW10      30.28R
ROCK SPRINGS,  LGT RAIN  64  53  67 S13       30.24R
KEMMERER, WY     N/A     63  46  55 SW7       30.27R

$$




USA.gov is the U.S. government's official web portal to all federal, state and local government web resources and services.